Location: Watson Lake
(60.1170°N, 128.8000°W)
Time: 18:31:24
(UTC-07:00)

Daily predictions for brighter satellites

Satellite Brightness Start Highest point End
(mag) Time Altitude Azimuth Time Altitude Azimuth Time Altitude Azimuth
Cosmos 1607 4.1 19:41:03 10° SSW 19:47:04 57° SE 19:53:06 10° ENE
USA 238 DEB 4.0 19:41:20 10° SSW 19:48:09 55° SE 19:54:59 10° ENE
USA 238 4.0 19:41:26 10° SSW 19:48:15 54° SE 19:55:05 10° ENE
SJ-6B 3.0 19:45:10 10° SSE 19:49:15 85° WSW 19:53:25 10° NNW
Cosmos 1420 Rocket 4.2 19:45:17 10° NNW 19:50:37 84° WSW 19:55:56 10° SSE
Cosmos 1331 Rocket 4.4 19:46:00 10° NNW 19:51:10 47° NE 19:56:18 10° ESE
Cosmos 2333 Rocket 2.3 19:46:02 10° SSW 19:51:48 78° SE 19:57:36 10° NE
ERBS 3.3 19:49:14 10° W 19:52:34 42° SSW 19:55:55 10° ESE
Cosmos 2034 Rocket 4.4 19:47:51 10° SSE 19:53:45 44° E 19:59:44 10° NNE
Cosmos 1464 Rocket 4.1 19:48:03 10° SSE 19:54:02 53° E 20:00:00 10° NNE
Cosmos 2322 Rocket 3.7 19:52:44 10° W 19:57:51 33° NNW 20:02:59 10° NE
Cosmos 1484 Rocket 4.2 19:55:53 10° S 19:59:39 45° W 20:03:30 10° NNW
CZ-4C R/B 2.5 19:55:55 10° SW 20:01:28 59° SE 20:07:51 10° ENE
Cosmos 1758 3.9 19:59:56 10° SSE 20:03:43 36° E 20:07:31 10° NNE
USA 186 2.5 20:02:07 10° ESE 20:04:04 22° ENE 20:06:08 10° N
ATLAS 5 CENTAUR R/B 3.0 20:00:30 10° S 20:04:29 25° ESE 20:08:46 10° ENE
Cosmos 2233 Rocket 4.2 19:58:46 10° SSW 20:05:07 81° WNW 20:11:30 10° NNE
SPOT 5 4.3 20:02:50 10° E 20:05:43 18° NE 20:08:40 10° N
ALOS 2.3 20:03:54 10° SE 20:08:31 61° ENE 20:13:08 10° NNW
Cosmos 1626 4.2 20:06:47 10° NNE 20:08:35 13° NE 20:10:23 10° E
Helios 1A 3.0 20:04:40 10° SSE 20:08:53 84° ENE 20:13:10 10° NNW
Cosmos 1697 Rocket 4.2 20:04:20 10° NW 20:09:08 27° N 20:13:56 10° ENE
Cosmos 2237 Rocket 2.2 20:03:51 10° SW 20:09:33 85° SE 20:15:16 10° NE
FengYun 1-2 T 4.2 20:04:28 10° SSE 20:09:58 80° ENE 20:15:30 10° NNW
CENTAUR R/B 4.0 20:06:35 10° SE 20:09:58 15° ESE 20:13:33 10° ENE
Cosmos 1544 4.0 20:07:21 10° SSE 20:10:38 29° E 20:13:56 10° NNE
Cosmos 1743 Rocket 3.5 20:08:00 10° NNW 20:12:30 78° ENE 20:16:56 10° SSE
COSMOS 2428 3.5 20:06:53 10° WSW 20:12:31 55° NW 20:18:11 10° NE
Exosat Rocket 4.2 20:07:22 10° NW 20:13:12 76° NE 20:21:20 10° SE
Spot 2 Rocket 3.7 20:11:19 10° SSE 20:16:21 79° WSW 20:21:28 10° NNW
COSMOS 2455 3.1 20:10:48 10° WSW 20:16:52 74° NW 20:22:57 10° NE
Cosmos 1656 Rocket 4.1 20:12:43 10° NW 20:17:58 46° NE 20:22:45 12° ESE
Cosmos 1328 4.2 20:14:57 10° N 20:18:45 42° ENE 20:22:34 10° SE
Resurs 1-3 3.6 20:15:37 10° SSE 20:20:01 89° SW 20:24:29 10° NNW
NOSS 3-2 (C) 4.1 20:14:27 10° SSW 20:20:13 39° SE 20:26:32 10° ENE
Cosmos 1766 3.3 20:16:42 10° S 20:20:41 87° ESE 20:24:44 10° NNE
Meteor 1-21 Rocket 4.5 20:15:33 10° NNW 20:21:10 75° WSW 20:26:41 10° S
HJ-1C 3.8 20:18:02 10° S 20:21:25 68° WSW 20:24:49 10° NNW
Cosmos 1980 3.9 20:18:29 10° SW 20:24:10 80° NW 20:29:54 10° NE
SL-14 R/B 4.1 20:20:38 10° N 20:24:22 34° ENE 20:27:52 11° SE
Resurs 01 Rocket 2.0 20:21:37 10° S 20:26:04 69° WSW 20:30:32 10° NNW
Envisat 3.7 20:22:48 10° ESE 20:27:20 37° ENE 20:31:59 10° N
Meteor 1-28 Rocket 3.1 20:24:01 10° NNE 20:27:46 67° ESE 20:31:28 10° S
Cosmos 1867 3.7 20:22:54 10° WSW 20:28:25 85° NNW 20:33:57 10° ENE
Sich 1 4.1 20:25:59 10° N 20:29:48 27° ENE 20:32:33 15° ESE
COSMO-SKYMED 1 2.9 20:25:44 10° NNE 20:30:05 73° WNW 20:34:26 10° SSW
CZ-4 DEB 4.0 20:28:57 17° ESE 20:30:29 24° ENE 20:33:05 10° N
SL-16 R/B 2.2 20:25:40 10° SSW 20:31:19 68° ESE 20:37:00 10° NE
Helios 1B rocket 2.7 20:27:47 10° NNE 20:31:45 44° E 20:35:42 10° S
ARGOS 4.5 20:28:41 13° E 20:32:13 24° NE 20:36:29 10° N
CZ-2D R/B 3.2 20:28:29 10° SSE 20:32:23 73° ENE 20:36:17 10° NNW
Cosmos 1346 4.3 20:30:08 10° NNW 20:33:01 44° W 20:35:53 10° S
FREGAT/IRIS 4.5 20:30:21 10° SSW 20:33:14 35° W 20:36:08 10° NNW
Cosmos 1939 Rocket 3.7 20:32:59 15° ESE 20:35:45 33° ENE 20:39:19 10° N
GP-B 3.5 20:35:50 10° N 20:40:06 42° E 20:44:21 10° SSE
FENGYUN 3A 3.8 20:38:00 10° SSE 20:43:25 82° WSW 20:48:52 10° NNW
CZ-4B DEB 3.0 20:40:13 10° S 20:43:29 74° WSW 20:46:47 10° NNW
Cosmos 2219 Rocket 2.9 20:38:20 10° WSW 20:43:54 55° NW 20:49:31 10° NE
USA 215 4.3 20:40:32 14° E 20:44:08 22° SE 20:49:00 10° S
H-2A R/B 3.7 20:41:40 13° ENE 20:44:23 19° NE 20:47:54 10° N
H-2A R/B 2.7 20:40:32 10° SSE 20:44:26 89° ENE 20:48:18 10° NNW
Meteor 1-29 3.2 20:41:08 10° NNE 20:44:34 46° E 20:47:58 10° S
SeaSat 1 4.3 20:42:27 10° ENE 20:43:06 12° ENE 20:43:06 12° ENE
NOSS 0 Rocket 4.3 20:39:41 10° SW 20:45:53 70° NW 20:52:08 10° NE
Cosmos 2360 Rocket 3.7 20:41:33 10° W 20:46:42 33° NNW 20:51:51 10° NE
Aureole 2 Rocket 3.0 20:42:33 10° SW 20:46:52 81° NW 20:50:57 10° NNE
CZ-4B DEB 4.5 20:43:58 10° SSE 20:47:35 83° ENE 20:51:13 10° NNW
Cosmos 1805 3.2 20:43:43 10° S 20:47:40 82° E 20:51:39 10° NNE
Nadezhda 4 Rocket 4.3 20:41:31 10° NNW 20:47:49 71° W 20:54:01 10° S
Cosmos 1980 Rocket 3.7 20:43:13 10° NW 20:48:07 28° N 20:53:00 10° ENE
Lacrosse 4 Rocket 3.1 20:45:11 10° WNW 20:49:13 30° N 20:53:06 11° ENE
Meteor 2-12 Rocket 4.4 20:48:20 10° S 20:54:30 80° E 21:00:40 10° NNE
Cosmos 1805 Rocket 3.8 20:50:31 10° N 20:54:54 53° ENE 20:58:09 17° SE
Cosmos 1953 2.3 20:52:01 10° SSW 20:56:00 84° WNW 21:00:01 10° NNE
Cosmos 1092 Rocket 4.1 20:50:43 10° NNW 20:56:59 78° W 21:03:10 10° S
Cosmos 2058 2.9 20:52:57 10° N 20:57:03 64° ENE 21:00:23 15° SSE
Cosmos 1943 Rocket 2.2 20:52:09 10° NW 20:57:51 83° SW 21:02:42 14° SSE
ERS-1 Rocket 3.0 20:55:37 14° SE 20:59:50 62° ENE 21:04:50 10° NNW
Terra 3.6 20:58:12 14° ENE 21:00:04 17° NE 21:03:08 10° N
SJ-11-01 4.3 20:56:38 14° SSE 21:00:41 67° ENE 21:05:24 10° NNW
Cosmos 2151 2.9 20:56:27 10° NNW 21:00:43 90° SSW 21:04:56 10° SSE
Cosmos 1110 Rocket 4.3 20:56:02 10° NW 21:01:20 72° WSW 21:06:38 10° SSE
Cosmos 2369 Rocket 3.1 20:56:29 10° NW 21:01:54 48° WSW 21:07:18 10° S
H-2A R/B 2.8 21:00:19 23° ESE 21:02:32 38° ENE 21:06:45 10° N
Cosmos 1655 Rocket 3.9 20:57:30 10° NNW 21:03:47 74° ENE 21:10:00 10° SSE
Cosmos 2266 Rocket 4.5 21:00:23 10° N 21:06:28 43° ENE 21:10:11 22° ESE
Cosmos-2242 3.2 21:02:13 10° SSW 21:06:37 79° WNW 21:11:05 10° NNE
USA 245 4.5 21:06:43 20° ENE 21:06:44 20° ENE 21:09:03 10° N
SPOT 1/Viking Rocket 4.4 21:04:45 22° E 21:07:10 33° NE 21:11:45 10° N
Cosmos 1633 Rocket 3.4 21:03:06 10° N 21:07:20 45° ENE 21:09:23 26° SE
ATLAS 3B R/B 3.0 21:00:30 10° WSW 21:08:01 75° NNW 21:15:09 10° ENE
Cosmos 2026 Rocket 3.9 21:02:53 10° NNW 21:09:01 83° ENE 21:15:11 10° SSE
Cosmos 1674 4.0 21:05:32 10° NNW 21:09:14 43° W 21:12:56 10° SSW
Cosmos 1733 3.2 21:05:50 10° S 21:09:37 55° E 21:13:25 10° NNE
Cosmos 1703 3.6 21:06:26 10° N 21:10:14 46° ENE 21:11:44 30° ESE
Cosmos 1470 2.6 21:08:24 10° S 21:12:15 67° E 21:16:09 10° NNE
Cosmos 2221 3.2 21:10:55 27° SE 21:12:18 33° E 21:16:12 10° NNE
Cosmos 1943 3.7 21:07:45 10° S 21:12:47 35° ESE 21:17:50 10° NE
MetOp-B 4.5 21:11:14 24° ESE 21:14:12 47° ENE 21:19:20 10° NNW
ASTEX 1 3.4 21:13:13 10° N 21:18:11 88° WNW 21:23:06 10° S
Cosmos 1603 3.7 21:13:19 10° SSW 21:19:01 65° ESE 21:24:44 10° NE
SL-16 R/B 3.8 21:15:26 10° WNW 21:20:18 28° N 21:25:10 10° ENE
YAOGAN 6 3.2 21:22:16 35° E 21:22:49 38° ENE 21:26:13 10° N
Cosmos 1634 Rocket 3.9 21:17:28 10° S 21:23:38 68° E 21:29:48 10° NNE
YAOGAN 11 4.0 21:22:29 21° SSE 21:25:19 90° ENE 21:29:40 10° NNW
Cosmos 2251 Rocket 4.2 21:25:11 29° SE 21:26:18 32° ESE 21:30:55 10° NE
ERBS 4.5 21:26:15 10° W 21:28:47 19° SW 21:30:03 16° S
NOSS 3-2 (A) 3.6 21:24:24 10° SW 21:30:46 77° SE 21:37:55 10° ENE
Cosmos 1842 Rocket 3.5 21:27:09 10° SSW 21:31:30 85° WNW 21:35:56 10° NNE
Cosmos 1666 Rocket 3.5 21:29:36 10° NNW 21:34:04 81° ENE 21:36:17 30° SSE
Cosmos 1607 4.2 21:28:11 10° WSW 21:34:20 69° NNW 21:40:32 10° ENE
USA 186 3.4 21:33:43 15° SW 21:35:04 24° W 21:37:12 10° NW
Meteor 2-20 4.4 21:29:52 10° NNW 21:36:06 86° ENE 21:40:47 18° SSE
Meteor 2-20 Rocket 4.4 21:30:14 10° NNW 21:36:27 75° ENE 21:40:24 24° SSE
Cosmos 2333 Rocket 3.4 21:31:04 10° W 21:36:34 42° NNW 21:42:04 10° NE
USA 238 DEB 3.8 21:31:56 10° WSW 21:39:01 80° NNW 21:45:46 12° ENE
USA 238 3.8 21:32:02 10° WSW 21:39:07 80° NNW 21:45:52 12° ENE
SPOT 5 2.5 21:41:47 42° SE 21:43:08 68° ENE 21:47:32 10° NNW
Cosmos 2322 Rocket 3.8 21:38:34 10° NW 21:43:28 28° N 21:47:39 13° ENE
Cosmos 2278 4.1 21:38:03 10° NW 21:43:41 53° NE 21:46:01 33° E
Cosmos 1626 2.1 21:41:04 10° N 21:44:50 62° ENE 21:45:11 58° ESE
Cosmos 1544 4.5 21:42:10 10° SW 21:45:45 41° WNW 21:49:22 10° N
Meteor 2-1 Rocket 4.4 21:41:08 15° S 21:45:49 57° E 21:51:38 10° NNE
ALOS 4.1 21:42:12 10° SSW 21:46:18 29° W 21:50:25 10° NNW
Cosmos 1302 Rocket 4.4 21:41:11 10° NW 21:46:20 61° WSW 21:49:25 24° S
Cosmos 1933 Rocket 3.8 21:42:50 10° N 21:47:15 52° ENE 21:48:02 46° ESE
Cosmos 1437 Rocket 2.7 21:48:01 57° ESE 21:48:15 58° ESE 21:52:08 10° NNE
ATLAS 5 CENTAUR R/B 1.9 21:43:23 10° SW 21:48:26 73° SE 21:52:34 18° ENE
CZ-4C R/B 2.6 21:44:06 10° WSW 21:50:01 74° NNW 21:55:50 15° ENE
Cosmos 724 4.3 21:46:08 10° SW 21:52:09 74° SE 21:58:21 10° NE
Meteor 1-16 Rocket 3.9 21:47:53 10° S 21:53:10 75° ESE 21:58:34 10° NNE
Cosmos 374 Rocket 4.3 21:48:35 10° WSW 21:53:19 90° NW 21:54:38 42° ENE
Cosmos 2237 Rocket 3.5 21:48:52 10° W 21:54:12 39° NNW 21:59:32 10° NE
Cosmos 1697 Rocket 3.5 21:49:13 10° NW 21:54:31 40° NNE 21:56:48 28° ENE
Cosmos 1470 Rocket 3.5 21:51:52 10° N 21:56:12 63° ENE 21:56:47 56° ESE
COSMOS 2428 4.4 21:52:54 10° WNW 21:57:56 30° NNW 22:03:01 10° NE
Cosmos 1992 Rocket 3.9 21:53:01 10° NNW 21:58:19 77° NE 21:59:56 45° SE
CENTAUR R/B 2.8 21:52:49 10° SSW 21:58:54 47° SE 22:05:46 10° ENE
MetOp-A 4.1 21:58:03 36° SSE 22:00:22 88° ENE 22:05:47 10° NNW
Cosmos 1048 Rocket 4.0 21:56:03 10° SW 22:01:20 84° WNW 22:06:35 10° NNE
Cosmos 1656 Rocket 3.9 21:56:27 10° NW 22:01:49 63° WSW 22:04:08 34° S
CZ-4 DEB 3.8 22:01:33 36° SW 22:02:04 40° W 22:05:03 10° NNW
Cosmos 1340 Rocket 3.1 21:58:38 10° N 22:02:20 51° ENE 22:02:20 51° ENE
Cosmos 1656 4.2 21:57:20 10° NW 22:02:36 45° NE 22:04:18 35° E
COSMOS 2455 3.8 21:57:45 10° W 22:03:34 45° N 22:08:44 13° ENE
Cosmos 1269 Rocket 4.2 21:59:34 10° SW 22:04:52 74° NW 22:10:12 10° NNE
Envisat 3.5 22:03:00 22° S 22:06:14 58° WSW 22:11:17 10° NNW
Nadezhda 2 Rocket 4.5 22:00:47 10° N 22:06:58 63° ENE 22:08:57 42° SE
Helios 1B rocket 4.1 22:03:16 10° N 22:07:03 35° WNW 22:10:49 10° SW
Sich 1 3.4 22:03:30 10° NNW 22:07:53 61° W 22:09:34 35° SSW
NOSS 3-2 (C) 3.6 22:04:09 10° WSW 22:10:37 88° SSE 22:17:52 10° ENE
Cosmos 1939 Rocket 3.8 22:08:56 27° SSW 22:10:39 44° W 22:14:28 10° NNW
Cosmos 2369 3.8 22:05:20 10° NW 22:11:05 65° NE 22:12:42 46° ESE
ARGOS 3.1 22:10:13 47° SE 22:11:48 75° ENE 22:17:16 10° NNW
Cosmos 1867 4.2 22:07:07 10° W 22:12:31 53° N 22:15:55 22° ENE
SL-16 R/B 3.2 22:10:18 10° WSW 22:15:47 46° NNW 22:21:18 10° NE
Cosmos 405 3.5 22:18:21 55° N 22:18:21 55° N 22:21:17 10° NNE
Cosmos 158 Rocket 3.7 22:13:39 10° SSW 22:18:33 89° ESE 22:23:30 10° NNE
Landsat 7 3.9 22:21:46 57° E 22:22:03 58° ENE 22:26:44 10° NNW
H-2A R/B 2.1 22:22:19 54° E 22:22:54 57° ENE 22:28:01 10° NNW
SeaSat 1 2.7 22:18:55 10° NE 22:22:49 48° ENE 22:22:49 48° ENE
USA 81 4.0 22:24:17 59° SE 22:25:03 68° E 22:30:20 10° NNE
Cosmos 2180 Rocket 4.4 22:23:20 22° S 22:27:29 89° E 22:33:42 10° NNE
Cosmos 1900 4.4 22:22:50 10° NW 22:27:45 64° NNE 22:28:26 57° ENE
USA 215 3.4 22:27:55 46° SE 22:28:23 47° SSE 22:34:38 10° SW
Lacrosse 4 Rocket 2.3 22:24:33 10° NW 22:28:53 42° NNE 22:29:26 40° NE
Cosmos 2219 Rocket 3.9 22:24:01 10° WNW 22:29:00 30° NNW 22:34:00 10° NE
Cosmos 2360 Rocket 3.9 22:27:23 10° NW 22:32:16 28° N 22:36:07 14° ENE
Cosmos 1980 Rocket 2.9 22:28:02 10° NW 22:33:29 43° NNE 22:34:56 36° ENE
SL-08 RB Rocket 3.5 22:33:26 85° ESE 22:33:32 87° ENE 22:38:03 10° NNW
Cosmos 2285 Rocket 3.9 22:29:02 10° NNW 22:35:29 88° WSW 22:37:08 53° SSE
Terra 2.0 22:37:06 57° ENE 22:37:06 57° ENE 22:41:42 10° NNW
H-2A R/B 2.9 22:37:28 39° SW 22:38:31 47° W 22:42:55 10° NNW
Cosmos 2228 Rocket 3.5 22:39:40 52° NE 22:39:40 52° NE 22:43:06 10° NNE
ERS-1 Rocket 4.5 22:35:38 16° SSW 22:38:58 32° W 22:43:30 10° NNW
NOAA 11 4.2 22:39:12 52° S 22:40:30 74° WSW 22:45:58 10° NNW
Cosmos 1943 Rocket 4.0 22:36:31 10° NW 22:40:55 24° WSW 22:44:14 14° SSW
USA 245 4.4 22:44:02 36° NW 22:44:02 36° NW 22:46:00 10° NNW
Cosmos 2279 Rocket 4.2 22:38:50 10° SSW 22:45:01 67° WNW 22:51:15 10° NNE
Cosmos 1633 Rocket 4.5 22:41:07 10° NNW 22:45:05 34° W 22:46:29 27° SW
SPOT 1/Viking Rocket 3.7 22:45:24 55° SSW 22:46:21 67° WSW 22:51:30 10° NNW
Cosmos 2221 3.5 22:47:45 26° SW 22:49:50 45° WNW 22:54:00 10° N
Cosmos 2266 Rocket 4.5 22:45:50 10° NNW 22:52:05 58° W 22:54:46 33° SSW
Cosmos 1356 Rocket 3.9 22:48:58 10° NNW 22:52:12 55° NNW 22:52:12 55° NNW
SL-24 DEB 4.4 22:50:01 10° N 22:53:57 63° NNE 22:53:57 63° NNE
YAOGAN 6 4.2 22:56:45 32° W 22:56:45 32° W 22:59:48 10° NNW
Cosmos 1943 3.3 22:50:54 10° SW 22:56:32 73° NW 23:02:12 10° NE
SL-08 R/B 4.4 22:51:55 10° NNW 22:58:07 70° ENE 22:58:46 65° ESE
ATLAS 3B R/B 3.0 22:52:04 10° WNW 22:59:26 67° N 23:02:24 37° ENE
Meteor 2-3 Rocket 3.6 22:58:16 10° NNW 23:04:07 78° ENE 23:04:23 76° ESE
SL-16 R/B 3.2 23:00:34 10° NW 23:05:53 38° NNE 23:07:14 33° ENE
Cosmos 2251 Rocket 3.7 23:05:30 28° SW 23:08:17 69° NW 23:13:35 10° NNE
Cosmos 1515 Rocket 4.4 23:10:23 44° NNE 23:10:23 44° NNE 23:13:29 10° NNE
Nimbus 7 Rocket 4.4 23:08:55 10° NNE 23:15:01 83° WNW 23:16:26 55° SW
Cosmos 1869 Rocket 4.2 23:12:28 10° NNW 23:16:00 54° NNW 23:16:00 54° NNW
Cosmos 1626 4.4 23:17:04 10° NW 23:19:53 20° W 23:19:53 20° W
Cosmos 1733 Rocket 4.4 23:16:16 10° N 23:19:13 33° NNE 23:19:13 33° NNE
COSMOS 2406 4.2 23:22:53 35° NE 23:22:53 35° NE 23:26:13 10° NE
Cosmos 494 Rocket 4.2 23:20:12 62° W 23:20:48 68° NW 23:25:59 10° NNE
SPOT 5 4.4 23:21:02 23° WSW 23:21:42 24° W 23:25:17 10° NW
NOSS 3-2 (A) 3.9 23:15:20 10° W 23:21:57 70° N 23:27:07 21° ENE
Cosmos 2333 Rocket 4.0 23:17:15 10° WNW 23:22:14 29° N 23:27:12 10° NE
Cosmos 1607 4.4 23:16:14 10° WNW 23:22:17 55° N 23:24:38 36° ENE
Spot 4 4.2 23:24:11 64° NNW 23:24:11 64° NNW 23:28:17 10° NNW
Cosmos 2360 4.4 23:22:04 10° NW 23:27:45 60° NE 23:27:53 59° NE
Cosmos 2278 4.1 23:22:23 10° NW 23:27:55 54° WSW 23:27:55 54° WSW
Cosmos 2322 Rocket 2.9 23:23:21 10° NW 23:28:50 45° NNE 23:29:27 43° NE
CZ-4B R/B 4.1 23:24:55 10° NNE 23:28:33 47° NE 23:28:33 47° NE
USA 238 DEB 3.9 23:23:30 10° WNW 23:30:33 69° N 23:33:10 41° ENE
USA 238 3.9 23:23:36 10° WNW 23:30:39 69° N 23:33:17 41° ENE
deb Chang Zheng 4 4.5 23:26:21 10° NNE 23:29:48 47° NNW 23:29:48 47° NNW
ATLAS 5 CENTAUR R/B 2.4 23:28:06 10° W 23:33:21 66° N 23:34:07 59° NNE
Cosmos 1697 Rocket 2.7 23:33:23 10° NW 23:38:31 73° WNW 23:38:31 73° WNW
CZ-4C R/B 2.8 23:32:56 10° WNW 23:39:10 69° N 23:40:59 49° ENE
Cosmos 2237 Rocket 4.0 23:34:50 10° WNW 23:39:41 28° N 23:44:32 10° ENE
Cosmos 1709 Rocket 4.1 23:34:14 10° N 23:40:12 62° ENE 23:40:12 62° ENE
Cosmos 1553 Rocket 4.1 23:41:23 59° ENE 23:41:23 59° ENE 23:46:44 10° NNE
Meteor 2-2 Rocket 4.3 23:41:08 76° NW 23:41:08 76° NW 23:46:40 10° NNE
Cosmos 1745 Rocket 3.9 23:36:38 10° NNW 23:42:57 78° W 23:43:08 77° WSW
S3M 4.1 23:43:51 64° ENE 23:43:51 64° ENE 23:49:38 10° NNE
COSMOS 2428 4.3 23:38:43 10° NW 23:43:48 31° NNE 23:46:31 21° ENE
ALOS 2 4.2 23:46:48 30° NNE 23:46:48 30° NNE 23:49:28 10° N
Cosmos 1656 4.0 23:41:07 10° NW 23:45:43 57° W 23:45:43 57° W
Cosmos 2082 Rocket 4.4 23:50:56 13° ENE 23:50:56 13° ENE 23:51:46 10° NE
CENTAUR R/B 2.7 23:42:36 10° WSW 23:49:16 85° NNW 23:56:53 10° ENE
SL-19 R/B 4.4 23:44:10 10° NNE 23:48:45 66° N 23:48:45 66° N
COSMOS 2455 3.5 23:44:40 10° WNW 23:50:34 50° NNE 23:51:51 43° NE
